• In Hungary
  • List of Countries
  • For 7 days
  • Water Temperature
  • Satellite Maps
  • Weather Map
  • News
  • Weather Widgets
  • user-avatar
    Login

    Hourly Weather Gremyachinsk

    Today, 25 June, Monday

    Time Temperature Precipitation Wind Pressure Humidity
    00:00 +15°C° 0.3 mm 2 mps 711 mmHg 98%
    01:00 +14°C° 0 mm 2 mps 711 mmHg 98%
    02:00 +14°C° 0.1 mm 2 mps 711 mmHg 98%
    03:00 +14°C° 0.1 mm 2 mps 711 mmHg 98%
    04:00 +14°C° 0.1 mm 2 mps 711 mmHg 98%
    05:00 +15°C° 0.1 mm 2 mps 711 mmHg 95%
    06:00 +15°C° 0.1 mm 2 mps 711 mmHg 92%
    07:00 +16°C° 0 mm 2 mps 711 mmHg 91%
    08:00 +16°C° 0.3 mm 2 mps 711 mmHg 90%
    09:00 +17°C° 0.3 mm 3 mps 711 mmHg 88%
    10:00 +17°C° 0.3 mm 3 mps 711 mmHg 86%
    11:00 +18°C° 0.3 mm 3 mps 711 mmHg 82%
    12:00 +20°C° 0.3 mm 3 mps 711 mmHg 77%
    13:00 +20°C° 0 mm 3 mps 711 mmHg 78%
    14:00 +20°C° 0.4 mm 2 mps 711 mmHg 78%
    15:00 +20°C° 0.4 mm 2 mps 711 mmHg 77%
    16:00 +20°C° 0.4 mm 2 mps 712 mmHg 77%
    17:00 +19°C° 0.1 mm 2 mps 712 mmHg 80%
    18:00 +19°C° 0.1 mm 2 mps 712 mmHg 82%
    19:00 +19°C° 0.1 mm 1 mps 712 mmHg 85%
    20:00 +18°C° 0 mm 1 mps 712 mmHg 89%
    21:00 +16°C° 0 mm 1 mps 713 mmHg 93%
    22:00 +15°C° 0 mm 1 mps 713 mmHg 97%
    23:00 +15°C° 0 mm 1 mps 713 mmHg 97%

    Tomorrow, 26 June, Tuesday

    Time Temperature Precipitation Wind Pressure Humidity
    00:00 +13°C° 0 mm 0 mps 713 mmHg 97%
    01:00 +13°C° 0 mm 0 mps 714 mmHg 97%
    02:00 +13°C° 0 mm 0 mps 714 mmHg 97%
    03:00 +12°C° 0 mm 0 mps 714 mmHg 97%
    04:00 +12°C° 0 mm 0 mps 714 mmHg 97%
    05:00 +15°C° 0 mm 1 mps 714 mmHg 91%
    06:00 +18°C° 0 mm 1 mps 715 mmHg 84%
    07:00 +20°C° 0 mm 1 mps 715 mmHg 78%
    08:00 +21°C° 0 mm 1 mps 715 mmHg 70%
    09:00 +21°C° 0 mm 2 mps 715 mmHg 63%
    10:00 +24°C° 0 mm 2 mps 715 mmHg 56%
    11:00 +24°C° 0 mm 2 mps 715 mmHg 53%
    12:00 +25°C° 0 mm 3 mps 715 mmHg 51%
    13:00 +26°C° 0 mm 3 mps 715 mmHg 48%
    14:00 +26°C° 0 mm 3 mps 716 mmHg 48%
    15:00 +26°C° 0 mm 2 mps 716 mmHg 47%
    16:00 +26°C° 0 mm 2 mps 716 mmHg 47%
    17:00 +24°C° 0 mm 2 mps 716 mmHg 53%
    18:00 +23°C° 0 mm 2 mps 716 mmHg 59%
    19:00 +22°C° 0 mm 1 mps 716 mmHg 66%
    20:00 +20°C° 0 mm 1 mps 716 mmHg 73%
    21:00 +18°C° 0 mm 1 mps 717 mmHg 81%
    22:00 +15°C° 0 mm 1 mps 717 mmHg 89%
    23:00 +15°C° 0 mm 1 mps 717 mmHg 88%

    Day after tomorrow, 27 June, Wednesday

    Time Temperature Precipitation Wind Pressure Humidity
    00:00 +15°C° 0 mm 1 mps 717 mmHg 87%
    01:00 +14°C° 0 mm 1 mps 717 mmHg 86%
    02:00 +15°C° 0 mm 1 mps 717 mmHg 86%
    03:00 +15°C° 0 mm 1 mps 717 mmHg 85%
    04:00 +15°C° 0 mm 1 mps 718 mmHg 85%
    05:00 +19°C° 0 mm 1 mps 718 mmHg 75%
    06:00 +21°C° 0 mm 1 mps 718 mmHg 66%
    07:00 +24°C° 0 mm 1 mps 718 mmHg 57%
    08:00 +26°C° 0 mm 1 mps 718 mmHg 52%
    09:00 +27°C° 0 mm 1 mps 718 mmHg 47%
    10:00 +29°C° 0 mm 2 mps 718 mmHg 42%
    11:00 +29°C° 0 mm 2 mps 717 mmHg 40%
    12:00 +30°C° 0 mm 2 mps 717 mmHg 38%
    13:00 +30°C° 0 mm 2 mps 716 mmHg 36%
    14:00 +30°C° 0 mm 2 mps 716 mmHg 35%
    15:00 +30°C° 0 mm 2 mps 716 mmHg 35%
    16:00 +30°C° 0 mm 2 mps 716 mmHg 35%
    17:00 +28°C° 0 mm 2 mps 715 mmHg 43%
    18:00 +27°C° 0 mm 2 mps 715 mmHg 51%
    19:00 +25°C° 0 mm 1 mps 715 mmHg 58%
    20:00 +23°C° 0 mm 2 mps 715 mmHg 62%
    21:00 +21°C° 0 mm 2 mps 715 mmHg 66%
    22:00 +19°C° 0 mm 2 mps 715 mmHg 69%
    23:00 +19°C° 0 mm 2 mps 715 mmHg 69%

    28 June, Thursday

    Time Temperature Precipitation Wind Pressure Humidity
    00:00 +19°C° 0 mm 2 mps 715 mmHg 68%
    01:00 +19°C° 0 mm 2 mps 715 mmHg 67%
    02:00 +19°C° 0 mm 2 mps 715 mmHg 68%
    03:00 +19°C° 0 mm 2 mps 715 mmHg 68%
    04:00 +18°C° 0 mm 2 mps 715 mmHg 69%
    05:00 +21°C° 0 mm 2 mps 715 mmHg 61%
    06:00 +24°C° 0 mm 2 mps 715 mmHg 54%
    07:00 +27°C° 0 mm 2 mps 715 mmHg 47%
    08:00 +28°C° 0 mm 2 mps 714 mmHg 43%
    09:00 +30°C° 0 mm 2 mps 714 mmHg 38%
    10:00 +31°C° 0 mm 3 mps 714 mmHg 33%
    11:00 +33°C° 0 mm 3 mps 713 mmHg 33%
    12:00 +32°C° 0 mm 2 mps 713 mmHg 32%
    13:00 +32°C° 0 mm 2 mps 713 mmHg 32%
    14:00 +32°C° 0.1 mm 2 mps 713 mmHg 33%
    15:00 +32°C° 0.1 mm 2 mps 712 mmHg 35%
    16:00 +31°C° 0.1 mm 2 mps 712 mmHg 37%
    17:00 +29°C° 0 mm 2 mps 712 mmHg 44%
    18:00 +28°C° 0 mm 1 mps 712 mmHg 51%
    19:00 +26°C° 0 mm 1 mps 711 mmHg 58%
    20:00 +24°C° 0 mm 1 mps 711 mmHg 62%
    21:00 +22°C° 0 mm 1 mps 711 mmHg 66%
    22:00 +20°C° 0 mm 1 mps 711 mmHg 70%
    23:00 +20°C° 0.1 mm 1 mps 711 mmHg 71%

    29 June, Friday

    Time Temperature Precipitation Wind Pressure Humidity
    00:00 +20°C° 0.1 mm 1 mps 711 mmHg 71%
    01:00 +19°C° 0.1 mm 1 mps 711 mmHg 72%
    02:00 +19°C° 0 mm 1 mps 711 mmHg 73%
    03:00 +19°C° 0 mm 1 mps 711 mmHg 74%
    04:00 +19°C° 0 mm 1 mps 711 mmHg 74%
    05:00 +21°C° 0 mm 1 mps 711 mmHg 69%
    06:00 +23°C° 0 mm 1 mps 711 mmHg 64%
    07:00 +24°C° 0 mm 1 mps 712 mmHg 59%
    08:00 +25°C° 0 mm 2 mps 712 mmHg 51%
    09:00 +26°C° 0 mm 2 mps 712 mmHg 44%
    10:00 +27°C° 0 mm 3 mps 712 mmHg 37%
    11:00 +28°C° 0 mm 3 mps 711 mmHg 35%
    12:00 +28°C° 0 mm 3 mps 711 mmHg 34%
    13:00 +28°C° 0 mm 3 mps 711 mmHg 32%
    14:00 +28°C° 0 mm 3 mps 711 mmHg 33%
    15:00 +28°C° 0 mm 3 mps 711 mmHg 33%
    16:00 +28°C° 0 mm 3 mps 711 mmHg 34%
    17:00 +26°C° 0 mm 2 mps 711 mmHg 41%
    18:00 +25°C° 0 mm 2 mps 711 mmHg 48%
    19:00 +23°C° 0 mm 1 mps 711 mmHg 54%
    20:00 +21°C° 0 mm 1 mps 711 mmHg 60%
    21:00 +19°C° 0 mm 1 mps 711 mmHg 66%
    22:00 +16°C° 0 mm 1 mps 711 mmHg 72%
    23:00 +16°C° 0 mm 1 mps 711 mmHg 72%

    30 June, Saturday

    Time Temperature Precipitation Wind Pressure Humidity
    00:00 +15°C° 0 mm 1 mps 711 mmHg 71%
    01:00 +15°C° 0 mm 1 mps 711 mmHg 70%
    02:00 +15°C° 0 mm 1 mps 711 mmHg 71%
    03:00 +15°C° 0 mm 1 mps 712 mmHg 71%
    04:00 +15°C° 0 mm 1 mps 712 mmHg 71%
    05:00 +19°C° 0 mm 1 mps 712 mmHg 64%
    06:00 +22°C° 0 mm 1 mps 712 mmHg 56%
    07:00 +25°C° 0 mm 2 mps 712 mmHg 48%
    08:00 +27°C° 0 mm 2 mps 712 mmHg 44%
    09:00 +29°C° 0 mm 2 mps 712 mmHg 39%
    10:00 +31°C° 0 mm 3 mps 712 mmHg 35%
    11:00 +31°C° 0 mm 3 mps 712 mmHg 35%
    12:00 +31°C° 0 mm 3 mps 711 mmHg 34%
    13:00 +31°C° 0 mm 3 mps 711 mmHg 34%
    14:00 +31°C° 0 mm 3 mps 711 mmHg 34%
    15:00 +30°C° 0 mm 3 mps 710 mmHg 35%
    16:00 +30°C° 0 mm 3 mps 710 mmHg 35%
    17:00 +29°C° 0 mm 3 mps 710 mmHg 41%
    18:00 +27°C° 0 mm 3 mps 710 mmHg 48%
    19:00 +25°C° 0 mm 2 mps 710 mmHg 54%
    20:00 +24°C° 0 mm 2 mps 710 mmHg 58%
    21:00 +21°C° 0 mm 2 mps 710 mmHg 62%
    22:00 +19°C° 0 mm 2 mps 710 mmHg 66%
    23:00 +19°C° 0 mm 2 mps 710 mmHg 66%
    Show more